TimeCDT,TemperatureF,Dew PointF,Humidity,Sea Level PressureIn,VisibilityMPH,Wind Direction,Wind SpeedMPH,Gust SpeedMPH,PrecipitationIn,Events,Conditions,WindDirDegrees,DateUTC
12:58 AM,73.2,72.9,99,29.89,10.0,South,9.2,-,N/A,,Partly Cloudy,180,2013-09-19 05:58:00
1:58 AM,72.0,71.8,99,29.90,10.0,South,9.2,-,N/A,,Clear,180,2013-09-19 06:58:00
2:58 AM,71.4,71.4,100,29.90,10.0,South,10.4,-,N/A,,Clear,190,2013-09-19 07:58:00
3:58 AM,73.2,72.1,96,29.88,10.0,SSW,11.5,-,N/A,,Clear,200,2013-09-19 08:58:00
4:58 AM,72.9,72.0,97,29.90,10.0,South,10.4,-,N/A,,Partly Cloudy,190,2013-09-19 09:58:00
5:58 AM,72.7,71.1,95,29.90,10.0,South,10.4,-,N/A,,Clear,190,2013-09-19 10:58:00
6:58 AM,73.2,70.2,90,29.90,10.0,South,12.7,-,N/A,,Partly Cloudy,190,2013-09-19 11:58:00
7:58 AM,73.6,69.3,86,29.90,10.0,SSW,12.7,-,N/A,,Scattered Clouds,200,2013-09-19 12:58:00
8:58 AM,76.3,68.5,77,29.90,10.0,SSW,13.8,-,N/A,,Mostly Cloudy,200,2013-09-19 13:58:00
9:58 AM,81.5,68.5,65,29.92,10.0,SSW,17.3,23.0,N/A,,Scattered Clouds,210,2013-09-19 14:58:00
10:55 AM,84.2,68.0,58,29.93,10.0,SW,19.6,25.3,N/A,,Clear,220,2013-09-19 15:55:00
11:55 AM,84.2,69.8,62,29.93,10.0,SSW,17.3,24.2,N/A,,Partly Cloudy,210,2013-09-19 16:55:00
12:58 PM,88.7,69.6,53,29.89,10.0,SW,19.6,24.2,N/A,,Scattered Clouds,220,2013-09-19 17:58:00
1:55 PM,90.7,70.3,51,29.86,10.0,SSW,19.6,24.2,N/A,,Scattered Clouds,210,2013-09-19 18:55:00
2:58 PM,91.4,70.5,50,29.84,10.0,SSW,17.3,-,N/A,,Scattered Clouds,200,2013-09-19 19:58:00
3:58 PM,90.9,70.0,50,29.80,10.0,SSW,19.6,-,N/A,,Scattered Clouds,200,2013-09-19 20:58:00
4:58 PM,90.0,68.9,50,29.77,10.0,SSW,23.0,26.5,N/A,,Scattered Clouds,200,2013-09-19 21:58:00
5:58 PM,88.5,68.5,51,29.78,10.0,SSW,20.7,28.8,N/A,,Mostly Cloudy,210,2013-09-19 22:58:00
6:58 PM,84.9,68.5,58,29.79,10.0,SSW,13.8,-,N/A,,Mostly Cloudy,200,2013-09-19 23:58:00
7:58 PM,83.7,67.5,58,29.85,10.0,SW,17.3,26.5,N/A,,Mostly Cloudy,220,2013-09-20 00:58:00
8:41 PM,80.6,68.0,65,29.93,10.0,NW,16.1,29.9,N/A,Thunderstorm,Thunderstorm,320,2013-09-20 01:41:00
9:28 PM,69.8,69.8,100,29.93,9.0,WNW,6.9,-,N/A,Rain,Light Rain,300,2013-09-20 02:28:00
9:58 PM,68.7,68.7,100,29.94,3.0,WNW,9.2,-,0.18,Rain-Thunderstorm,Rain,300,2013-09-20 02:58:00
10:48 PM,68.0,68.0,100,29.91,9.0,West,6.9,-,N/A,Rain,Light Rain,270,2013-09-20 03:48:00
10:58 PM,68.5,68.5,100,29.90,9.0,WSW,6.9,-,0.21,Rain,Light Rain,240,2013-09-20 03:58:00
11:05 PM,68.0,68.0,100,29.92,10.0,SW,8.1,-,N/A,Rain,Light Rain,230,2013-09-20 04:05:00
11:35 PM,68.0,68.0,100,29.90,10.0,South,9.2,-,N/A,Rain,Light Rain,180,2013-09-20 04:35:00
11:45 PM,68.0,68.0,100,29.89,10.0,South,10.4,-,N/A,,Partly Cloudy,170,2013-09-20 04:45:00
11:54 PM,68.0,68.0,100,29.89,10.0,South,9.2,-,N/A,,Light Drizzle,170,2013-09-20 04:54:00
11:58 PM,68.0,68.0,100,29.89,10.0,South,9.2,-,0.05,,Light Drizzle,170,2013-09-20 04:58:00